Volver al catálogo

STARLINK-34870

ActivoComunicacionesVLEO
NORAD 65370·PAYLOAD·🇺🇸 United States

Lanzado Aug 28, 2025 desde Cape Canaveral Space Force Station

Loading…

Próximos Pases (próximas 24 horas)

TLE

ActualizadoSource: CelesTrak SupGP

Época: Sep 14, 2026, 21:42 UTC

1 65370C 25190V   26257.90465278  .00006512  00000+0  19239-3 0  2578
2 65370  53.1596   7.8314 0001298  73.7401 354.9629 15.34388763    14

Sigue STARLINK-34870 en tiempo real con AllMySat

Download on the App Store